Ravenna, OH

8:58 AM EDT on September 26, 2017 (GMT -0400)
Ravenna

Weather History for KPOV - July, 2013

Change the Weather History Date:

Monday, July 8, 2013

  Actual Average (KCAK) Record (KCAK)
Temperature  
Mean Temperature 72 °F -  
Max Temperature 82 °F 84 °F 99 °F (1988)
Min Temperature 63 °F 62 °F 47 °F (1954)
Cooling Degree Days 8    
Growing Degree Days 22 (Base 50)    
Moisture  
Dew Point 66 °F    
Average Humidity 85    
Maximum Humidity 100    
Minimum Humidity 57    
Precipitation  
Precipitation 0.40 in - - ()
Sea Level Pressure  
Sea Level Pressure 30.10 in    
Wind  
Wind Speed 2 mph (SW)    
Max Wind Speed 13 mph    
Max Gust Speed 23 mph    
Visibility 9 miles    
Events Rain    
Averages and records for this station are not official NWS values.
T = Trace of Precipitation, MM = Missing Value Source: NWS Daily Summary

Daily Weather History Graph

Daily Weather History Graph

Search for Another Location

Airport or City:

Trip Planner

Search our weather history database for the weather conditions in past years. The results will help you decide how hot, cold, wet, or windy it might be!

Date:

Astronomy

Jul. 08, 2013 Rise Set
Actual Time 6:00 AM EDT 8:59 PM EDT
Civil Twilight 5:26 AM EDT 9:32 PM EDT
Nautical Twilight 4:44 AM EDT 10:15 PM EDT
Astronomical Twilight 3:55 AM EDT 11:04 PM EDT
Moon 6:28 AM EDT (7/8) 9:00 PM EDT (7/8)
Length of Visible Light 16h 05m
Length of Day
14h 59m
New Moon, 0% of the Moon is Illuminated
Jul 8
New Moon
Jul 15
First Quarter
Jul 22
Full
Jul 29
Last Quarter
Aug 6
New

Hourly Weather History & Observations

Time (EDT) Temp. Heat Index Dew Point Humidity Pressure Visibility Wind Dir Wind Speed Gust Speed Precip Events Conditions
12:13 AM 66.2 °F - 66.4 °F 100% 30.10 in 10.0 mi Calm Calm - N/A   Scattered Clouds
12:34 AM 66.6 °F - 66.7 °F 100% 30.10 in 10.0 mi Calm Calm - N/A   Scattered Clouds
12:53 AM 66.0 °F - 66.2 °F 100% 30.10 in 10.0 mi SW 3.5 mph - N/A   Scattered Clouds
1:13 AM 67.1 °F - 67.1 °F 100% 30.10 in 10.0 mi Calm Calm - N/A   Scattered Clouds
1:33 AM 66.4 °F - 66.4 °F 100% 30.09 in 10.0 mi Calm Calm - N/A   Scattered Clouds
1:54 AM 66.6 °F - 66.7 °F 100% 30.09 in 10.0 mi Calm Calm - N/A   Clear
2:14 AM 65.3 °F - 65.5 °F 100% 30.09 in 10.0 mi Calm Calm - N/A   Clear
2:33 AM - - - N/A% 30.09 in 10.0 mi Calm Calm - N/A   Scattered Clouds
2:53 AM 65.7 °F - 65.8 °F 100% 30.09 in 10.0 mi Calm Calm - N/A   Clear
3:14 AM 65.7 °F - 65.1 °F 98% 30.10 in 10.0 mi SW 3.5 mph - N/A   Scattered Clouds
3:33 AM 65.7 °F - 64.2 °F 95% 30.10 in 10.0 mi Calm Calm - N/A   Mostly Cloudy
3:53 AM 65.7 °F - 64.2 °F 95% 30.09 in 10.0 mi SW 4.6 mph - N/A   Mostly Cloudy
4:13 AM 65.7 °F - 63.5 °F 93% 30.08 in 10.0 mi WSW 3.5 mph - N/A   Scattered Clouds
4:33 AM 64.9 °F - 61.7 °F 89% 30.08 in 10.0 mi Calm Calm - N/A   Scattered Clouds
4:54 AM 63.0 °F - 63.1 °F 100% 30.09 in 10.0 mi Calm Calm - N/A   Clear
5:14 AM 63.7 °F - 63.7 °F 100% 30.09 in 10.0 mi Calm Calm - N/A   Clear
5:33 AM 63.5 °F - 63.5 °F 100% 30.10 in 10.0 mi SW 3.5 mph - N/A   Scattered Clouds
5:53 AM 64.0 °F - 63.5 °F 98% 30.10 in 10.0 mi WSW 4.6 mph - N/A   Mostly Cloudy
6:14 AM 64.4 °F - 63.7 °F 98% 30.10 in 10.0 mi WSW 3.5 mph - N/A   Mostly Cloudy
6:33 AM 63.5 °F - 63.1 °F 99% 30.10 in 10.0 mi Calm Calm - N/A   Scattered Clouds
6:53 AM 63.7 °F - 63.9 °F 100% 30.10 in 10.0 mi Calm Calm - N/A   Clear
7:14 AM 63.9 °F - 63.9 °F 100% 30.11 in 10.0 mi Calm Calm - N/A   Clear
7:33 AM 64.9 °F - 64.4 °F 98% 30.12 in 10.0 mi SW 3.5 mph - N/A   Scattered Clouds
7:53 AM 65.3 °F - 64.6 °F 98% 30.12 in 10.0 mi Calm Calm - N/A   Overcast
8:13 AM 65.7 °F - 64.9 °F 98% 30.12 in 10.0 mi Calm Calm - N/A   Overcast
8:33 AM 65.8 °F - 65.5 °F 99% 30.12 in 10.0 mi Calm Calm - N/A   Mostly Cloudy
8:54 AM 67.6 °F - 66.2 °F 95% 30.12 in 10.0 mi Calm Calm - N/A   Scattered Clouds
9:14 AM 69.6 °F - 65.7 °F 87% 30.12 in 10.0 mi SW 4.6 mph - N/A   Clear
9:33 AM 71.4 °F - 65.8 °F 82% 30.12 in 10.0 mi SW 3.5 mph - N/A   Clear
9:53 AM 73.0 °F - 66.2 °F 79% 30.12 in 10.0 mi WSW 4.6 mph - N/A   Clear
10:14 AM 74.3 °F - 66.2 °F 76% 30.13 in 10.0 mi West 9.2 mph - N/A   Clear
10:33 AM 75.0 °F - 66.0 °F 73% 30.12 in 10.0 mi West 9.2 mph - N/A   Scattered Clouds
10:53 AM 75.6 °F - 66.0 °F 72% 30.12 in 10.0 mi SW 3.5 mph - N/A   Scattered Clouds
11:14 AM 76.1 °F - 65.3 °F 69% 30.13 in 10.0 mi WSW 5.8 mph - N/A   Clear
11:33 AM 77.0 °F - 65.1 °F 67% 30.13 in 10.0 mi SW 6.9 mph - N/A   Clear
11:53 AM 77.7 °F - 66.2 °F 68% 30.13 in 10.0 mi WSW 4.6 mph - N/A   Scattered Clouds
12:13 PM 78.6 °F - 64.6 °F 62% 30.13 in 10.0 mi WSW 6.9 mph - N/A   Scattered Clouds
12:33 PM 78.8 °F - 63.9 °F 60% 30.12 in 10.0 mi WSW 5.8 mph - N/A   Clear
12:54 PM 79.9 °F - 64.8 °F 60% 30.12 in 10.0 mi West 4.6 mph - N/A   Clear
1:13 PM 79.9 °F - 63.5 °F 57% 30.12 in 10.0 mi WSW 5.8 mph - N/A   Clear
1:33 PM 81.3 °F 83.0 °F 64.6 °F 57% 30.11 in 10.0 mi WSW 3.5 mph - N/A   Scattered Clouds
1:53 PM 81.3 °F 83.3 °F 65.8 °F 59% 30.11 in 10.0 mi SW 8.1 mph - N/A   Scattered Clouds
2:14 PM 81.7 °F 83.8 °F 66.0 °F 59% 30.10 in 10.0 mi SSW 4.6 mph - N/A   Scattered Clouds
2:33 PM 80.8 °F 82.6 °F 65.3 °F 59% 30.09 in 10.0 mi WSW 5.8 mph - N/A   Mostly Cloudy
2:53 PM 79.9 °F - 64.4 °F 59% 30.09 in 10.0 mi WSW 4.6 mph - N/A   Overcast
3:14 PM 81.7 °F 84.0 °F 66.7 °F 60% 30.08 in 10.0 mi Calm Calm - N/A   Mostly Cloudy
3:33 PM 82.2 °F 84.2 °F 65.7 °F 57% 30.08 in 10.0 mi SW 6.9 mph - N/A   Clear
3:53 PM 81.5 °F 83.7 °F 66.6 °F 60% 30.08 in 10.0 mi SW 4.6 mph - N/A   Clear
4:13 PM 81.5 °F 83.9 °F 66.7 °F 61% 30.07 in 10.0 mi Calm Calm - N/A   Clear
4:33 PM 82.8 °F 85.3 °F 66.9 °F 59% 30.08 in 10.0 mi SW 6.9 mph - N/A   Clear
4:54 PM 81.3 °F 83.5 °F 66.0 °F 60% 30.08 in 10.0 mi SW 3.5 mph - N/A   Clear
5:13 PM 80.8 °F 82.9 °F 66.4 °F 61% 30.08 in 10.0 mi Calm Calm - N/A   Clear
5:33 PM 80.2 °F 82.7 °F 67.5 °F 65% 30.07 in 10.0 mi Calm Calm - N/A   Clear
5:53 PM 79.7 °F - 67.6 °F 66% 30.07 in 10.0 mi Calm Calm - N/A   Scattered Clouds
6:14 PM 79.0 °F - 68.0 °F 69% 30.06 in 10.0 mi SSW 6.9 mph - N/A   Mostly Cloudy
6:33 PM 77.7 °F - 67.5 °F 71% 30.07 in 10.0 mi SW 3.5 mph - N/A   Mostly Cloudy
6:54 PM 76.1 °F - 66.2 °F 71% 30.08 in 10.0 mi West 12.7 mph 18.4 mph N/A   Mostly Cloudy
7:13 PM 71.4 °F - 67.8 °F 88% 30.10 in 7.0 mi SW 6.9 mph - 0.02 in Rain Rain
7:33 PM 69.4 °F - 68.9 °F 98% 30.09 in 10.0 mi Calm Calm - 0.02 in Rain Light Rain
7:54 PM 68.9 °F - 68.9 °F 100% 30.08 in 10.0 mi SE 5.8 mph - 0.03 in   Mostly Cloudy
8:14 PM 68.9 °F - 68.9 °F 100% 30.08 in 10.0 mi SSE 4.6 mph - N/A   Mostly Cloudy
8:33 PM 69.1 °F - 69.3 °F 100% 30.12 in 3.0 mi WSW 6.9 mph 23.0 mph 0.20 in Rain Heavy Rain
8:53 PM 68.2 °F - 68.4 °F 100% 30.12 in 7.0 mi WSW 5.8 mph - 0.29 in Rain Rain
9:13 PM 68.2 °F - 68.4 °F 100% 30.11 in 7.0 mi WSW 4.6 mph - 0.03 in Rain Light Rain
9:33 PM 68.2 °F - 68.4 °F 100% 30.11 in 7.0 mi WSW 4.6 mph - 0.04 in Rain Light Rain
9:53 PM 68.0 °F - 68.2 °F 100% 30.11 in 7.0 mi Calm Calm - 0.05 in Rain Light Rain
10:13 PM 67.6 °F - 68.0 °F 100% 30.11 in 7.0 mi Calm Calm - N/A Rain Rain
10:33 PM 67.6 °F - 68.0 °F 100% 30.11 in 5.0 mi Calm Calm - N/A   Mostly Cloudy
10:53 PM 67.5 °F - 67.6 °F 100% 30.11 in 7.0 mi Calm Calm - N/A   Overcast
11:13 PM 68.0 °F - 68.0 °F 100% 30.11 in 7.0 mi Calm Calm - 0.01 in Rain Light Rain
11:34 PM 67.3 °F - 67.5 °F 100% 30.11 in 7.0 mi Calm Calm - 0.03 in Rain Rain
11:53 PM 67.3 °F - 67.5 °F 100% 30.10 in 7.0 mi Calm Calm - 0.03 in Rain Light Rain